MMS 1                   
1 40482U 15011A   19258.58333333 -.00000932  00000-0  00000+0 0  9996
2 40482  18.1706 119.4011 8934371  15.3809 165.3787  0.28590254 10420
MMS 2                   
1 40483U 15011B   19243.96574074 -.00001439  00000-0  00000+0 0  9995
2 40483  17.2677 119.1256 8959005  15.2457 103.2511  0.28555535 10367
MMS 3                   
1 40484U 15011C   19256.99152584 -.00001032  00000-0  00000+0 0  9990
2 40484  18.1087 119.4320 8936431  15.3131   1.6479  0.28591491 10406